Total_Precipitation_Accumulation
0.00 0.00 0.00 0.00 0.00 0.00 0.00 0.00 0.00 0.00 0.00 0.00 0.00 0.00 0.00 0.00 0.00 0.00 0.00 0.00 0.03 0.13 0.17 0.06 0.07 0.01 0.05 0.06 0.00 0.01 0.01 0.02 0.03 0.01 0.03 0.05 0.02 0.01 0.07 0.14 0.07 0.00 0.00 0.00
0.00 0.00 0.00 0.00 0.00 0.00 0.00 0.00 0.00 0.00 0.00 0.00 0.00 0.00 0.00 0.00 0.00 0.00 0.00 0.00 0.00 0.02 0.09 0.03 0.05 0.02 0.01 0.05 0.00 0.00 0.00 0.00 0.02 0.04 0.03 0.03 0.07 0.02 0.05 0.12 0.12 0.01 0.00 0.01
0.00 0.00 0.00 0.00 0.00 0.00 0.00 0.00 0.00 0.00 0.00 0.00 0.00 0.00 0.00 0.00 0.00 0.00 0.00 0.00 0.00 0.01 0.20 0.13 0.06 0.05 0.01 0.01 0.05 0.07 0.01 0.06 0.16 0.06 0.09 0.09 0.06 0.01 0.00 0.00 0.01 0.01 0.05 0.05
0.00 0.00 0.00 0.00 0.00 0.00 0.00 0.00 0.00 0.00 0.00 0.00 0.00 0.00 0.00 0.00 0.00 0.00 0.00 0.00 0.01 0.01 0.13 0.14 0.04 0.07 0.02 0.00 0.21 0.23 0.19 0.25 0.47 0.26 0.09 0.08 0.12 0.06 0.02 0.03 0.01 0.05 0.01 0.04
0.00 0.00 0.00 0.00 0.00 0.00 0.00 0.00 0.00 0.00 0.00 0.00 0.00 0.00 0.00 0.00 0.00 0.01 0.01 0.01 0.04 0.03 0.06 0.14 0.07 0.01 0.06 0.19 0.36 0.54 0.34 0.36 0.47 0.34 0.27 0.15 0.13 0.20 0.09 0.06 0.05 0.04 0.00 0.01
0.00 0.00 0.00 0.00 0.00 0.00 0.00 0.00 0.00 0.00 0.00 0.00 0.00 0.00 0.00 0.00 0.00 0.00 0.01 0.01 0.01 0.00 0.01 0.08 0.07 0.00 0.30 0.80 1.06 1.24 0.85 0.97 0.84 0.60 0.40 0.26 0.19 0.32 0.31 0.11 0.07 0.03 0.04 0.00
0.00 0.00 0.00 0.00 0.00 0.00 0.00 0.00 0.00 0.00 0.00 0.00 0.00 0.00 0.00 0.00 0.00 0.00 0.00 0.01 0.00 0.00 0.00 0.04 0.07 0.02 0.13 0.37 0.47 0.95 0.89 0.96 1.72 1.66 0.88 0.54 0.52 0.35 0.24 0.11 0.03 0.09 0.11 0.08
0.00 0.00 0.00 0.00 0.00 0.00 0.00 0.00 0.00 0.00 0.00 0.00 0.00 0.00 0.00 0.00 0.00 0.00 0.01 0.02 0.06 0.03 0.02 0.02 0.06 0.06 0.01 0.04 0.12 0.21 0.24 0.36 0.82 0.83 0.50 0.38 0.26 0.22 0.09 0.18 0.11 0.05 0.02 0.07
0.00 0.00 0.00 0.00 0.00 0.00 0.00 0.00 0.00 0.00 0.00 0.00 0.00 0.00 0.00 0.00 0.00 0.00 0.03 0.04 0.09 0.10 0.03 0.03 0.05 0.04 0.02 0.00 0.02 0.05 0.04 0.10 0.31 0.29 0.27 0.20 0.20 0.16 0.13 0.20 0.17 0.10 0.05 0.02
0.00 0.00 0.00 0.00 0.00 0.00 0.00 0.00 0.00 0.00 0.00 0.00 0.00 0.00 0.00 0.00 0.00 0.00 0.04 0.17 0.08 0.09 0.01 0.02 0.04 0.05 0.05 0.01 0.01 0.01 0.01 0.04 0.16 0.24 0.26 0.19 0.21 0.16 0.16 0.13 0.06 0.04 0.01 0.01
0.00 0.00 0.00 0.00 0.00 0.00 0.00 0.00 0.00 0.00 0.00 0.00 0.00 0.00 0.00 0.00 0.00 0.00 0.08 0.22 0.06 0.07 0.00 0.00 0.01 0.05 0.07 0.04 0.05 0.06 0.03 0.04 0.09 0.16 0.24 0.34 0.20 0.16 0.13 0.09 0.09 0.05 0.08 0.04
0.00 0.00 0.00 0.00 0.00 0.00 0.00 0.00 0.00 0.00 0.00 0.00 0.00 0.00 0.00 0.00 0.00 0.00 0.00 0.02 0.06 0.06 0.00 0.00 0.00 0.03 0.07 0.10 0.09 0.14 0.11 0.10 0.18 0.22 0.14 0.28 0.26 0.18 0.11 0.12 0.14 0.12 0.05 0.04
0.00 0.00 0.00 0.00 0.00 0.00 0.00 0.00 0.00 0.00 0.00 0.00 0.00 0.00 0.00 0.00 0.00 0.00 0.00 0.02 0.05 0.08 0.04 0.01 0.00 0.01 0.04 0.10 0.13 0.15 0.14 0.17 0.16 0.16 0.07 0.26 0.34 0.25 0.17 0.13 0.15 0.16 0.06 0.06
0.00 0.00 0.00 0.00 0.00 0.00 0.00 0.00 0.00 0.00 0.00 0.00 0.00 0.00 0.00 0.00 0.00 0.00 0.01 0.05 0.12 0.10 0.07 0.05 0.01 0.02 0.04 0.09 0.16 0.22 0.25 0.20 0.21 0.19 0.10 0.26 0.44 0.34 0.24 0.15 0.12 0.07 0.14 0.19
0.00 0.00 0.00 0.00 0.00 0.00 0.00 0.00 0.00 0.00 0.00 0.00 0.00 0.00 0.00 0.00 0.00 0.00 0.02 0.06 0.10 0.04 0.02 0.04 0.07 0.06 0.08 0.08 0.14 0.20 0.24 0.20 0.15 0.17 0.15 0.20 0.41 0.42 0.35 0.29 0.24 0.29 0.34 0.33
0.00 0.00 0.00 0.00 0.00 0.00 0.00 0.00 0.00 0.00 0.00 0.00 0.00 0.00 0.00 0.01 0.00 0.01 0.01 0.03 0.05 0.04 0.04 0.04 0.05 0.07 0.08 0.06 0.06 0.13 0.20 0.25 0.17 0.15 0.18 0.17 0.16 0.23 0.31 0.36 0.38 0.44 0.49 0.65
0.00 0.00 0.00 0.00 0.00 0.00 0.00 0.00 0.00 0.00 0.00 0.00 0.00 0.00 0.01 0.02 0.06 0.14 0.05 0.04 0.04 0.02 0.02 0.01 0.02 0.02 0.04 0.04 0.07 0.07 0.12 0.17 0.28 0.28 0.32 0.33 0.14 0.15 0.23 0.33 0.40 0.42 0.42 0.55
0.00 0.00 0.00 0.00 0.00 0.00 0.00 0.00 0.00 0.00 0.00 0.00 0.00 0.01 0.02 0.03 0.05 0.15 0.05 0.02 0.02 0.01 0.00 0.00 0.00 0.01 0.01 0.00 0.01 0.04 0.04 0.02 0.13 0.36 0.42 0.45 0.35 0.29 0.24 0.23 0.34 0.38 0.47 0.39
0.00 0.00 0.00 0.00 0.00 0.00 0.00 0.00 0.00 0.00 0.01 0.02 0.02 0.03 0.02 0.03 0.06 0.07 0.01 0.00 0.01 0.02 0.00 0.00 0.00 0.01 0.01 0.01 0.00 0.00 0.00 0.02 0.09 0.10 0.21 0.59 0.64 0.46 0.42 0.32 0.30 0.33 0.38 0.35
0.00 0.00 0.00 0.00 0.00 0.00 0.00 0.00 0.00 0.00 0.01 0.02 0.04 0.06 0.06 0.08 0.10 0.01 0.04 0.04 0.03 0.01 0.00 0.00 0.00 0.00 0.00 0.00 0.00 0.00 0.00 0.00 0.06 0.04 0.20 0.36 0.42 0.43 0.93 0.95 0.61 0.65 0.53 0.52
0.00 0.00 0.00 0.00 0.00 0.00 0.00 0.00 0.00 0.00 0.00 0.01 0.04 0.05 0.08 0.05 0.06 0.01 0.04 0.02 0.01 0.00 0.00 0.00 0.00 0.00 0.00 0.00 0.00 0.00 0.00 0.00 0.01 0.02 0.11 0.19 0.18 0.29 0.29 0.62 1.22 1.48 1.68 1.43
0.00 0.00 0.00 0.00 0.00 0.00 0.00 0.00 0.00 0.01 0.01 0.00 0.00 0.00 0.00 0.00 0.00 0.00 0.00 0.00 0.00 0.00 0.00 0.00 0.00 0.00 0.00 0.00 0.00 0.00 0.00 0.00 0.00 0.00 0.00 0.01 0.06 0.07 0.12 0.28 0.49 0.94 1.84 3.32
0.00 0.00 0.00 0.00 0.00 0.00 0.00 0.00 0.00 0.00 0.00 0.00 0.00 0.00 0.00 0.00 0.00 0.00 0.00 0.00 0.00 0.00 0.00 0.00 0.00 0.00 0.00 0.00 0.00 0.00 0.00 0.00 0.00 0.00 0.00 0.00 0.00 0.00 0.00 0.04 0.15 0.55 1.14 2.38
0.00 0.00 0.00 0.00 0.00 0.00 0.00 0.00 0.00 0.00 0.00 0.00 0.00 0.00 0.00 0.00 0.00 0.00 0.00 0.00 0.00 0.00 0.00 0.00 0.00 0.00 0.00 0.00 0.00 0.00 0.00 0.00 0.00 0.00 0.00 0.00 0.00 0.00 0.00 0.00 0.00 0.10 0.31 1.12
0.00 0.00 0.00 0.00 0.00 0.00 0.00 0.00 0.00 0.00 0.00 0.00 0.00 0.00 0.00 0.00 0.00 0.00 0.00 0.00 0.00 0.00 0.00 0.00 0.00 0.00 0.00 0.00 0.00 0.00 0.00 0.00 0.00 0.00 0.00 0.00 0.00 0.00 0.00 0.00 0.01 0.06 0.02 0.09
0.00 0.00 0.00 0.00 0.00 0.00 0.00 0.00 0.00 0.00 0.00 0.00 0.00 0.00 0.00 0.00 0.00 0.00 0.00 0.00 0.00 0.00 0.00 0.00 0.00 0.00 0.00 0.00 0.00 0.00 0.00 0.00 0.00 0.00 0.00 0.00 0.00 0.00 0.00 0.00 0.00 0.04 0.03 0.01